Location: Bagnolo San Vito
(45.0833°N, 10.8833°E)
Time: 10:01:17
(UTC+00:00)

COSMO-SKYMED 1 - Pass Details

Date: 03 March 2021
Orbit: 621 x 623 km, 97.9° (Epoch: 18 April)

Event Time Altitude Azimuth Distance (km) Brightness Sun altitude
Rises 17:43:23 0° 9° (N) 2,916 5.9 -7.3°
Reaches altitude 10° 17:45:36 10° 6° (N) 2,005 5.1 -7.7°
Maximum altitude 17:49:54 61° 287° (WNW) 708 3.2 -8.4°
Drops below altitude 10° 17:54:10 10° 207° (SSW) 1,988 5.5 -9.2°
Sets 17:56:21 0° 204° (SSW) 2,889 6.3 -9.6°
